Showing default

COSMOS 2251, 22675

Orbit data source: Space-Track

COSMOS 2251, 22675 is a payload satellite owned by VKS (CIS) in LEO that was launched on Wed, 16 Jun 1993 UTC via a KOSMOS 11K65M launch vehicle from the Plesetsk Missile And Space Complex (PKMTR). Payload-class satellites include a variety of spacecraft equipped with specific instruments for various scientific and technological missions. These include communications satellites like Starlink; space stations such as the ISS; scientific satellites like the Hubble; Earth observation satellites from companies like Planet Labs, Umbra, and HawkEye 360; GPS; miniature CubeSats for education and research; and military/defense satellites.

Loading next visibility...
Identifier
22675, 1993-036A
Orbit
LEO
Country
Flag of CISCIS
Related business
Manufacturer
NPO PM
Mission
Defense Communications
Bus & Motor
STRELA-2M, Unknown motor
Mass
800 kg wet, 800 kg dry
Launch date (UTC)
1993-06-16 (32 years ago)
Launch vehicle
KOSMOS 11K65M
Launch site
Plesetsk Missile And Space Complex (PKMTR)
Object type
Payload
Rocket body
Debris
Shape & HBR
Cyl, 1.5 m
Radar Cross Section
6.283 m², Large (>1 m²)

Expand to show TLE details & history
Last TLE update: 1 day ago

TLE from 1 day ago
0 COSMOS 2251
1 22675U 93036A   25301.51322194  .00000179  00000-0  74496-4 0  9992
2 22675  74.0413  38.5161 0023921 135.9616 224.3447 14.33185615691251
Epoch: 2025-10-28T12:19Z
TLE epoch observation values (Epoch: 2025-10-28T12:19:02.375Z)
Latitude
0.00002°
Longitude
176.65658°
Altitude
795.98 km
Speed
7.449 km/s
True Right ascension
02h 34m 03s
True Declination
0° 00' 00"
Sunlit
Object was in full shadow at epoch
Visualization orbit readout
Latitude
Unknown
Longitude
Unknown
Altitude
Unknown
Speed
Unknown
Apparent Right ascension
Unknown
Apparent Declination
Unknown
Sunlit
N/A
Visualization observer readout
Local Sidereal Time
09:54:52
Azimuth
Unknown
Elevation
Unknown
Doppler factor
Unknown
Orbital elements
Apogee altitude
795.849 km
Perigee altitude
761.609 km
Semi-major axis
7,156.866 km
Eccentricity
0.00239
Inclination
74.0413°
RAAN
38.5161°
Arg. of periapsis
135.9616°
True anomaly
224.15351°
Mean anomaly
224.3447°
Eccentric anomaly
224.24906°
Mean motion
3.58475 °/min
Orbital period
100.43 mins
BSTAR
0.000074496
Loading maneuver chart data...
Computing Atmospheric mass density...

Documentation

Showing up to 5 results
|